User: anonymous   Login
Location: Unspecified
(0.0000°N, 0.0000°E)
Time: 14:10:08
(UTC+00:00)
Language:

STSS DEMO 1 (USA 208) - Orbit

View from above orbital plane
View from above orbital plane
View from above satellite
View from above satellite

Ground track
Ground track

The orbit data is extracted from the following two-line orbital elements,

1 35937U 09052A   17059.83928437 0.00000000  00000-0  00000-0 0    02
2 35937  57.9887 316.7313 0021464 178.3930 181.6069 12.79322613    02
Epoch (UTC): 28 February 2017 20:08:34
Eccentricity: 0.0021464
inclination: 57.9887°
perigee height: 1327 km
apogee height: 1361 km
right ascension of ascending node: 316.7313°
argument of perigee: 178.3930°
revolutions per day: 12.79322613
mean anomaly at epoch: 181.6069°
orbit number at epoch: 0

The dashed part of the orbit path shows where the satellite is in the earth's shadow,  

DLR